Terminal Aerodrome Forecast
Issued by NWS

Home | Current Version | Previous Version | Text Only | Print | Product List | Glossary Off
Versions: 1 2 3 4 5 6 7 8 9 10 11 12 13 14 15 16 17 18 19 20 21 22 23 24 25 26 27 28 29 30 31 32 33 34 35 36 37 38 39 40 41 42 43 44 45 46 47 48 49 50

000
FTUS43 KLOT 250200 AAA
TAFGYY
TAF AMD
KGYY 250250Z 2503/2524 26011KT P6SM OVC012
      TEMPO 2503/2507 -DZ BKN008
     FM250700 28012KT P6SM SCT009 OVC013
     FM251300 25013KT P6SM BKN010 OVC015
     FM251800 22014KT P6SM SCT015 BKN200
     FM252100 20013KT P6SM FEW020 BKN200=

USA.gov is the U.S. government's official web portal to all federal, state and local government web resources and services.